Starlink 36169

operational
NORAD ID: 66929 Int'l Des: 2025-286 Owner: SPXS Country: US Constellation: starlink
LEOCIRCULAR

Starlink 36169について

説明を読み込み中...

リアルタイム位置

3D地球を読み込み中...

次回通過

高度履歴

Altitude vs Time

uPlot chart will show altitude changes over time

軌道要素

1 66929U 25286E 25347.58336806 -.01221770 45663-3 -29590-2 0 9991
2 66929 53.1573 46.4375 0001025 53.2502 232.4931 15.95696279 2120
Epoch: Dec 13, 2025 • Age: 19 hours

現在のステータス

高度 292.0 km
速度 7.73 km/s
衛星直下点 7.32°N, 2.51°W
打ち上げ日 Dec 7, 2025
運用期間 6 days
タイプ internet

技術仕様

分類 Payload
質量 575.00 kg
乾燥質量 530.00 kg
総質量 575.00 kg
長さ 0.30 m
直径 4.10 m
スパン 29.00 m
形状 Box + pan
製造者 SPXS
バスタイプ Starlink V2MO
フェーズステータス In Orbit
所有者/国 SPXS/US

大規模コンステレーション

Loading constellations...